Main page
METAR-TAF:

METAR-TAF

Airports :

Udaipur, India

Maharana Pratap Airport

latitude: 24-37-04N, longitude: 73-53-46E, elevation: 513 m

Current weather observation

The report was made 58 minutes ago, at 10:00 UTC
Wind 2 kt from the East/Southeast
Temperature 26°C
Humidity 21%
Pressure 1021 hPa
Visibility: 6000 m
Few clouds at a height of 3000 ft
Scattered clouds at a height of 10000 ft

METAR: VAUD 181000Z 11002KT 6000 FEW030 SCT100 26/02 Q1021 NOSIG

Time: 16:28 (10:58 UTC)


TAF: missing

Weather observations and forecasts of more than 4000 airports (METAR and TAF reports).

The available stations are represented by yellow and red dots on the map.

Hover mouse over dot to see the name of the station.

Then click to see weather observations and forecasts.

To change the map : click on the green buttons with a black cross to zoom in, on the green button with a dash to zoom out, or on the green arrows for adjacent maps.


METAR-TAF: